星链-33812 (STARLINK-33812)

导读

STARLINK-33812是美国SpaceX星链计划的成员卫星,于2025年5月10日发射升空,属于星链星座组网卫星。星链项目旨在构建全球卫星互联网星座,该卫星将和其他星链卫星协同,为全球用户提供低延迟、高速率的宽带互联网服务,进一步推动星链星座的全球覆盖进程,强化美国在低轨卫星互联网领域的布局。

基本信息
目录编号:
63879
目录名称:
STARLINK-33812
国际标识:
2025-094R
轨道中心:
EARTH
卫星名称:
星链-33812
卫星全名:
星链-33812 (STARLINK-33812)
卫星状态:
在轨 (已飞行400 天)
发射日期:
2025-05-10 UTC
国别 :
美国 (US)
星等 :
--
轨道信息
数据来源 国际轨道数据
星历时间: 2026-06-14T03:50:32+0800
10小时前
查看轨道信息
半长轴: 6950.184km
偏心率: 0.000248
轨道倾角: 70.002°
近地点辐角 270.462°
升交点赤经 352.055°
平近点角 89.625°
近地点: 570.323km
远地点: 573.771km
周期: 96.107分钟
每日圈数: 14.98333
详细信息
固有亮度:
5
最大亮度:
2.5
卫星平台:
Starlink V1.0
覆盖范围:
全球
运营商:
太空探索技术公司
运营商所在国:
美国
制造商(研发单位):
太空探索技术公司
制造商所在国:
美国
使用方式:
暂无
卫星简介
Starlink 计划是 SpaceX 推出的全球卫星互联网项目,通过发射低轨道卫星,为全球尤其是偏远地区提供高速、低延迟的互联网服务。自 2019 年起,Starlink 已部署数千颗卫星,旨在缩小全球数字鸿沟,推动互联网普及。该项目还为军事、航空等行业提供通信支持,带来广泛经济效益。
2D轨道图
3D轨道图
轨道高度分析图
轨道倾角分析图
轨道综合分析图
查看轨道综合分析图